| time (UTC) | temp F | wind direction | speed knots | gust knots | rain 1hr in | rain 24hr in | rain mn in | humidity % | barometer mb |
| 20260510223052 | 71 | 231 | 5.2 | 10.4 | 0.00 | 0.00 | 0.00 | 75 | 1013.4 |
| 20260510221546 | 71 | 220 | 4.3 | 12.2 | 0.00 | 0.00 | 0.00 | 75 | 1013.3 |
| 20260510220047 | 71 | 228 | 5.2 | 12.2 | 0.00 | 0.00 | 0.00 | 75 | 1013.3 |
| 20260510214543 | 71 | 250 | 5.2 | 10.4 | 0.00 | 0.00 | 0.00 | 74 | 1013.3 |
| 20260510213106 | 71 | 223 | 4.3 | 7.8 | 0.00 | 0.00 | 0.00 | 74 | 1013.4 |
| 20260510211542 | 71 | 206 | 3.5 | 9.6 | 0.00 | 0.00 | 0.00 | 75 | 1013.3 |
| 20260510210041 | 71 | 232 | 4.3 | 9.6 | 0.00 | 0.00 | 0.00 | 75 | 1013.3 |
| 20260510204640 | 70 | 203 | 4.3 | 8.7 | 0.00 | 0.00 | 0.00 | 76 | 1013.4 |
| 20260510203039 | 71 | 186 | 3.5 | 9.6 | 0.00 | 0.00 | 0.00 | 75 | 1013.5 |
| 20260510201540 | 71 | 213 | 3.5 | 9.6 | 0.00 | 0.00 | 0.00 | 75 | 1013.6 |
| 20260510200045 | 71 | 222 | 3.5 | 8.7 | 0.00 | 0.00 | 0.00 | 74 | 1013.7 |
| 20260510194538 | 70 | 205 | 3.5 | 9.6 | 0.00 | 0.00 | 0.00 | 76 | 1013.7 |
| 20260510193038 | 71 | 216 | 2.6 | 7.0 | 0.00 | 0.00 | 0.00 | 75 | 1013.7 |
| 20260510191538 | 71 | 241 | 0.9 | 7.8 | 0.00 | 0.00 | 0.00 | 74 | 1013.7 |
| 20260510190046 | 71 | 201 | 3.5 | 8.7 | 0.00 | 0.00 | 0.00 | 74 | 1013.7 |
| 20260510184533 | 70 | 230 | 4.3 | 8.7 | 0.00 | 0.00 | 0.00 | 75 | 1013.8 |
| 20260510183031 | 70 | 194 | 3.5 | 8.7 | 0.00 | 0.00 | 0.00 | 75 | 1013.9 |
| 20260510181530 | 71 | 246 | 3.5 | 8.7 | 0.00 | 0.00 | 0.00 | 74 | 1013.7 |
| 20260510180028 | 71 | 234 | 3.5 | 7.8 | 0.00 | 0.00 | 0.00 | 74 | 1013.7 |
| 20260510174526 | 71 | 212 | 2.6 | 7.0 | 0.00 | 0.00 | 0.00 | 75 | 1013.6 |
| 20260510173025 | 70 | 257 | 2.6 | 6.1 | 0.00 | 0.00 | 0.00 | 75 | 1013.6 |
| 20260510171527 | 70 | 235 | 1.7 | 5.2 | 0.00 | 0.00 | 0.00 | 74 | 1013.5 |
| 20260510170023 | 70 | 250 | 0.9 | 5.2 | 0.00 | 0.00 | 0.00 | 75 | 1013.4 |
| 20260510164521 | 70 | 240 | 1.7 | 6.1 | 0.00 | 0.00 | 0.00 | 74 | 1013.3 |
| 20260510163021 | 70 | 282 | 2.6 | 6.1 | 0.00 | 0.00 | 0.00 | 74 | 1013.3 |
| 20260510161516 | 69 | 193 | 0.9 | 5.2 | 0.00 | 0.00 | 0.00 | 78 | 1013.3 |
| 20260510160014 | 66 | 323 | 0.0 | 0.0 | 0.00 | 0.00 | 0.00 | 81 | 1013.3 |
| 20260510154512 | 66 | 309 | 0.0 | 3.5 | 0.00 | 0.00 | 0.00 | 81 | 1013.2 |
| 20260510153008 | 65 | 37 | 0.0 | 3.5 | 0.00 | 0.00 | 0.00 | 83 | 1013.1 |
| 20260510151512 | 64 | 44 | 0.0 | 0.0 | 0.00 | 0.00 | 0.00 | 84 | 1013.1 |
| 20260510150003 | 64 | 65 | 0.0 | 0.0 | 0.00 | 0.00 | 0.00 | 85 | 1013.0 |
| 20260510144503 | 63 | 112 | 0.0 | 0.0 | 0.00 | 0.00 | 0.00 | 86 | 1013.0 |
| 20260510143100 | 63 | 164 | 0.0 | 0.0 | 0.00 | 0.00 | 0.00 | 86 | 1012.9 |
| 20260510141558 | 63 | 223 | 0.0 | 0.0 | 0.00 | 0.00 | 0.00 | 87 | 1012.9 |
| 20260510140057 | 62 | 180 | 0.0 | 0.0 | 0.00 | 0.00 | 0.00 | 87 | 1012.9 |
| 20260510134557 | 62 | 121 | 0.0 | 0.0 | 0.00 | 0.00 | 0.00 | 88 | 1012.7 |
| 20260510133057 | 62 | 121 | 0.0 | 0.0 | 0.00 | 0.00 | 0.00 | 88 | 1012.6 |
| 20260510131555 | 62 | 122 | 0.0 | 0.0 | 0.00 | 0.00 | 0.00 | 88 | 1012.5 |
| 20260510130055 | 62 | 188 | 0.0 | 1.7 | 0.00 | 0.00 | 0.00 | 89 | 1012.4 |
| 20260510124557 | 62 | 90 | 0.0 | 0.0 | 0.00 | 0.00 | 0.00 | 89 | 1012.4 |
| 20260510123054 | 62 | 88 | 0.0 | 0.0 | 0.00 | 0.00 | 0.00 | 89 | 1012.4 |
| 20260510121553 | 62 | 88 | 0.0 | 0.0 | 0.00 | 0.00 | 0.00 | 89 | 1012.4 |
| 20260510120052 | 62 | 146 | 0.0 | 0.0 | 0.00 | 0.00 | 0.00 | 89 | 1012.4 |
| 20260510114604 | 62 | 192 | 0.0 | 2.6 | 0.00 | 0.00 | 0.00 | 89 | 1012.4 |
| 20260510113057 | 62 | 179 | 0.0 | 4.3 | 0.00 | 0.00 | 0.00 | 89 | 1012.3 |
| 20260510111551 | 62 | 153 | 0.0 | 2.6 | 0.00 | 0.00 | 0.00 | 88 | 1012.3 |
| 20260510110101 | 62 | 166 | 0.0 | 0.0 | 0.00 | 0.00 | 0.00 | 88 | 1012.4 |
| 20260510104550 | 62 | 121 | 0.0 | 4.3 | 0.00 | 0.00 | 0.00 | 88 | 1012.4 |
| 20260510103053 | 62 | 138 | 0.9 | 5.2 | 0.00 | 0.00 | 0.00 | 89 | 1012.4 |
| 20260510101559 | 62 | 165 | 2.6 | 7.0 | 0.00 | 0.00 | 0.00 | 89 | 1012.5 |
| 20260510100052 | 62 | 173 | 0.9 | 5.2 | 0.00 | 0.00 | 0.00 | 90 | 1012.5 |
| 20260510094550 | 62 | 184 | 0.9 | 3.5 | 0.00 | 0.00 | 0.00 | 90 | 1012.5 |
| 20260510093044 | 62 | 250 | 0.0 | 0.0 | 0.00 | 0.00 | 0.00 | 90 | 1012.5 |
| 20260510091542 | 62 | 250 | 0.0 | 0.0 | 0.00 | 0.00 | 0.00 | 91 | 1012.5 |
| 20260510090041 | 62 | 250 | 0.0 | 0.0 | 0.00 | 0.00 | 0.00 | 91 | 1012.5 |
| 20260510084544 | 62 | 250 | 0.0 | 0.0 | 0.00 | 0.00 | 0.00 | 91 | 1012.5 |
| 20260510083040 | 62 | 250 | 0.0 | 0.0 | 0.00 | 0.00 | 0.00 | 91 | 1012.6 |
| 20260510081541 | 61 | 221 | 0.0 | 0.0 | 0.00 | 0.00 | 0.00 | 91 | 1012.8 |
| 20260510080052 | 61 | 221 | 0.0 | 0.0 | 0.00 | 0.00 | 0.00 | 90 | 1012.9 |
| 20260510074538 | 61 | 194 | 0.0 | 0.0 | 0.00 | 0.00 | 0.00 | 90 | 1013.0 |
| 20260510073041 | 62 | 140 | 0.9 | 4.3 | 0.00 | 0.00 | 0.00 | 91 | 1013.1 |
| 20260510071533 | 61 | 196 | 0.0 | 0.0 | 0.00 | 0.00 | 0.00 | 90 | 1013.1 |
| 20260510070043 | 61 | 196 | 0.0 | 0.0 | 0.00 | 0.00 | 0.00 | 90 | 1013.1 |
| 20260510064529 | 61 | 178 | 0.0 | 2.6 | 0.00 | 0.00 | 0.00 | 90 | 1013.1 |
| 20260510063035 | 61 | 152 | 0.9 | 2.6 | 0.00 | 0.00 | 0.00 | 90 | 1013.2 |
| 20260510061528 | 61 | 271 | 0.0 | 0.0 | 0.00 | 0.00 | 0.00 | 90 | 1013.2 |
| 20260510060037 | 61 | 271 | 0.0 | 2.6 | 0.00 | 0.00 | 0.00 | 90 | 1013.2 |
| 20260510054528 | 61 | 272 | 0.0 | 2.6 | 0.00 | 0.00 | 0.00 | 90 | 1013.2 |
| 20260510053027 | 61 | 273 | 0.0 | 2.6 | 0.00 | 0.00 | 0.00 | 90 | 1013.2 |
| 20260510051527 | 61 | 273 | 0.0 | 5.2 | 0.00 | 0.00 | 0.00 | 90 | 1013.2 |
| 20260510050026 | 61 | 245 | 2.6 | 7.8 | 0.00 | 0.00 | 0.00 | 92 | 1013.2 |
| 20260510044526 | 61 | 277 | 2.6 | 6.1 | 0.00 | 0.00 | 0.00 | 90 | 1013.2 |
| 20260510043026 | 61 | 249 | 1.7 | 7.0 | 0.00 | 0.00 | 0.00 | 91 | 1013.1 |
| 20260510041527 | 61 | 259 | 0.0 | 7.0 | 0.00 | 0.00 | 0.00 | 91 | 1013.0 |
| 20260510040024 | 61 | 248 | 1.7 | 7.0 | 0.00 | 0.00 | 0.00 | 90 | 1012.8 |
| 20260510034524 | 61 | 225 | 3.5 | 8.7 | 0.00 | 0.00 | 0.00 | 90 | 1012.7 |
| 20260510033027 | 62 | 233 | 3.5 | 8.7 | 0.00 | 0.00 | 0.00 | 90 | 1012.4 |
| 20260510031525 | 62 | 266 | 6.1 | 9.6 | 0.00 | 0.00 | 0.00 | 89 | 1012.2 |
| 20260510030022 | 62 | 250 | 3.5 | 10.4 | 0.00 | 0.00 | 0.00 | 89 | 1012.1 |
| 20260510024522 | 63 | 242 | 3.5 | 7.8 | 0.00 | 0.00 | 0.00 | 88 | 1011.9 |
| 20260510023021 | 63 | 221 | 3.5 | 9.6 | 0.00 | 0.00 | 0.00 | 87 | 1011.9 |
| 20260510021546 | 64 | 286 | 3.5 | 8.7 | 0.00 | 0.00 | 0.00 | 87 | 1011.7 |
| 20260510020019 | 64 | 265 | 4.3 | 9.6 | 0.00 | 0.00 | 0.00 | 86 | 1011.7 |
| 20260510014531 | 65 | 213 | 3.5 | 7.0 | 0.00 | 0.00 | 0.00 | 85 | 1011.5 |
| 20260510013018 | 66 | 229 | 3.5 | 7.8 | 0.00 | 0.00 | 0.00 | 83 | 1011.5 |
| 20260510011518 | 67 | 233 | 2.6 | 10.4 | 0.00 | 0.00 | 0.00 | 81 | 1011.4 |
| 20260510010024 | 68 | 232 | 4.3 | 11.3 | 0.00 | 0.00 | 0.00 | 81 | 1011.3 |
| 20260510004514 | 68 | 273 | 5.2 | 13.0 | 0.00 | 0.00 | 0.00 | 80 | 1011.3 |
| 20260510003013 | 69 | 219 | 4.3 | 9.6 | 0.00 | 0.00 | 0.00 | 79 | 1011.4 |
| 20260510001512 | 70 | 240 | 4.3 | 9.6 | 0.00 | 0.00 | 0.00 | 78 | 1011.3 |
| 20260510000011 | 70 | 244 | 3.5 | 10.4 | 0.00 | 0.00 | 0.00 | 78 | 1011.4 |
| 20260509234511 | 70 | 198 | 5.2 | 13.0 | 0.00 | 0.00 | 0.00 | 78 | 1011.4 |
| 20260509233011 | 71 | 263 | 3.5 | 8.7 | 0.00 | 0.00 | 0.00 | 77 | 1011.6 |
| 20260509231510 | 71 | 290 | 3.5 | 7.0 | 0.00 | 0.00 | 0.00 | 77 | 1011.5 |
| 20260509230021 | 71 | 214 | 4.3 | 8.7 | 0.00 | 0.00 | 0.00 | 77 | 1011.5 |
| 20260509224507 | 70 | 271 | 4.3 | 11.3 | 0.00 | 0.00 | 0.00 | 77 | 1011.6 |